Tiempo cada hora Murowaniec

Hoy, 20 Octubre, Martes

Tiempo Temperatura Precipitaciones Viento Presión Humedad
00:00 +4°C° 0 mm 3 mps 759 mmHg 87%
01:00 +5°C° 0 mm 2 mps 760 mmHg 88%
02:00 +5°C° 0 mm 2 mps 760 mmHg 89%
03:00 +4°C° 0 mm 2 mps 760 mmHg 89%
04:00 +4°C° 0 mm 2 mps 759 mmHg 90%
05:00 +4°C° 0 mm 2 mps 760 mmHg 89%
06:00 +5°C° 0 mm 2 mps 760 mmHg 89%
07:00 +5°C° 0 mm 2 mps 760 mmHg 88%
08:00 +6°C° 0 mm 2 mps 760 mmHg 84%
09:00 +8°C° 0 mm 2 mps 760 mmHg 79%
10:00 +9°C° 0 mm 3 mps 760 mmHg 74%
11:00 +10°C° 0 mm 3 mps 759 mmHg 69%
12:00 +11°C° 0 mm 4 mps 759 mmHg 64%
13:00 +12°C° 0 mm 4 mps 759 mmHg 60%
14:00 +11°C° 0 mm 4 mps 758 mmHg 62%
15:00 +11°C° 0 mm 4 mps 758 mmHg 65%
16:00 +10°C° 0 mm 4 mps 757 mmHg 67%
17:00 +10°C° 0 mm 4 mps 757 mmHg 68%
18:00 +9°C° 0 mm 5 mps 756 mmHg 69%
19:00 +8°C° 0 mm 5 mps 756 mmHg 70%
20:00 +8°C° 0 mm 5 mps 756 mmHg 71%
21:00 +8°C° 0 mm 5 mps 755 mmHg 73%
22:00 +8°C° 0 mm 5 mps 755 mmHg 74%
23:00 +8°C° 0 mm 5 mps 755 mmHg 74%

Mañana, 21 Octubre, Miércoles

Tiempo Temperatura Precipitaciones Viento Presión Humedad
00:00 +8°C° 0 mm 5 mps 755 mmHg 73%
01:00 +8°C° 0 mm 5 mps 754 mmHg 72%
02:00 +8°C° 0 mm 5 mps 754 mmHg 71%
03:00 +9°C° 0 mm 5 mps 754 mmHg 70%
04:00 +9°C° 0 mm 5 mps 753 mmHg 69%
05:00 +9°C° 0 mm 5 mps 753 mmHg 69%
06:00 +10°C° 0 mm 4 mps 753 mmHg 69%
07:00 +10°C° 0 mm 4 mps 753 mmHg 69%
08:00 +11°C° 0 mm 4 mps 753 mmHg 67%
09:00 +11°C° 0 mm 4 mps 753 mmHg 66%
10:00 +12°C° 0 mm 4 mps 753 mmHg 64%
11:00 +12°C° 0 mm 4 mps 753 mmHg 64%
12:00 +13°C° 0 mm 4 mps 753 mmHg 64%
13:00 +13°C° 0 mm 4 mps 753 mmHg 63%
14:00 +13°C° 0 mm 3 mps 753 mmHg 64%
15:00 +12°C° 0 mm 3 mps 753 mmHg 64%
16:00 +12°C° 0 mm 3 mps 753 mmHg 65%
17:00 +12°C° 0 mm 3 mps 753 mmHg 66%
18:00 +12°C° 0 mm 4 mps 753 mmHg 68%
19:00 +11°C° 0 mm 4 mps 753 mmHg 70%
20:00 +11°C° 0 mm 4 mps 753 mmHg 73%
21:00 +11°C° 0 mm 4 mps 753 mmHg 75%
22:00 +10°C° 0 mm 4 mps 753 mmHg 78%
23:00 +10°C° 0 mm 4 mps 753 mmHg 77%

Pasado mañana, 22 Octubre, Jueves

Tiempo Temperatura Precipitaciones Viento Presión Humedad
00:00 +11°C° 0 mm 4 mps 753 mmHg 75%
01:00 +10°C° 0 mm 5 mps 753 mmHg 74%
02:00 +11°C° 0 mm 4 mps 753 mmHg 74%
03:00 +11°C° 0 mm 4 mps 753 mmHg 74%
04:00 +11°C° 0 mm 4 mps 753 mmHg 74%
05:00 +11°C° 0 mm 4 mps 753 mmHg 74%
06:00 +11°C° 0 mm 4 mps 753 mmHg 74%
07:00 +11°C° 0 mm 4 mps 753 mmHg 73%
08:00 +13°C° 0 mm 4 mps 753 mmHg 69%
09:00 +14°C° 0 mm 4 mps 753 mmHg 66%
10:00 +17°C° 0 mm 4 mps 753 mmHg 62%
11:00 +17°C° 0 mm 4 mps 753 mmHg 60%
12:00 +18°C° 0 mm 4 mps 753 mmHg 59%
13:00 +19°C° 0 mm 4 mps 753 mmHg 57%
14:00 +18°C° 0 mm 3 mps 753 mmHg 62%
15:00 +17°C° 0 mm 3 mps 752 mmHg 66%
16:00 +17°C° 0 mm 3 mps 752 mmHg 70%
17:00 +16°C° 0 mm 3 mps 752 mmHg 73%
18:00 +14°C° 0 mm 3 mps 752 mmHg 75%
19:00 +14°C° 0 mm 3 mps 752 mmHg 77%
20:00 +13°C° 0 mm 3 mps 752 mmHg 78%
21:00 +13°C° 0 mm 3 mps 752 mmHg 79%
22:00 +12°C° 0 mm 3 mps 751 mmHg 80%
23:00 +12°C° 0 mm 3 mps 751 mmHg 81%

23 Octubre, Viernes

Tiempo Temperatura Precipitaciones Viento Presión Humedad
00:00 +12°C° 0 mm 3 mps 751 mmHg 81%
01:00 +12°C° 0 mm 3 mps 751 mmHg 81%
02:00 +12°C° 0 mm 3 mps 751 mmHg 80%
03:00 +12°C° 0 mm 3 mps 750 mmHg 79%
04:00 +12°C° 0 mm 3 mps 750 mmHg 78%
05:00 +12°C° 0 mm 3 mps 750 mmHg 77%
06:00 +12°C° 0 mm 4 mps 750 mmHg 76%
07:00 +12°C° 0 mm 4 mps 750 mmHg 74%
08:00 +13°C° 0 mm 4 mps 750 mmHg 74%
09:00 +13°C° 0 mm 4 mps 750 mmHg 73%
10:00 +14°C° 0 mm 4 mps 750 mmHg 72%
11:00 +14°C° 0 mm 4 mps 750 mmHg 73%
12:00 +14°C° 0 mm 5 mps 750 mmHg 74%
13:00 +14°C° 0 mm 5 mps 750 mmHg 75%
14:00 +15°C° 0 mm 5 mps 750 mmHg 74%
15:00 +15°C° 0 mm 5 mps 750 mmHg 74%
16:00 +15°C° 0 mm 5 mps 749 mmHg 73%
17:00 +14°C° 0 mm 4 mps 750 mmHg 74%
18:00 +13°C° 0 mm 4 mps 750 mmHg 75%
19:00 +12°C° 0 mm 4 mps 751 mmHg 76%
20:00 +12°C° 0 mm 4 mps 751 mmHg 76%
21:00 +12°C° 0 mm 4 mps 751 mmHg 76%
22:00 +12°C° 0 mm 4 mps 751 mmHg 75%
23:00 +11°C° 0 mm 4 mps 751 mmHg 76%

24 Octubre, Sábado

Tiempo Temperatura Precipitaciones Viento Presión Humedad
00:00 +11°C° 0 mm 4 mps 752 mmHg 76%
01:00 +11°C° 0 mm 3 mps 752 mmHg 77%
02:00 +11°C° 0 mm 4 mps 752 mmHg 78%
03:00 +10°C° 0 mm 4 mps 751 mmHg 79%
04:00 +10°C° 0 mm 4 mps 751 mmHg 79%
05:00 +9°C° 0 mm 5 mps 751 mmHg 78%
06:00 +9°C° 0 mm 5 mps 751 mmHg 76%
07:00 +9°C° 0 mm 5 mps 751 mmHg 74%
08:00 +9°C° 0.1 mm 6 mps 751 mmHg 74%
09:00 +9°C° 0.1 mm 7 mps 751 mmHg 74%
10:00 +9°C° 0.1 mm 7 mps 751 mmHg 75%
11:00 +10°C° 0.3 mm 8 mps 751 mmHg 72%
12:00 +10°C° 0.3 mm 8 mps 751 mmHg 68%
13:00 +11°C° 0.3 mm 9 mps 751 mmHg 65%
14:00 +10°C° 0.2 mm 8 mps 751 mmHg 66%
15:00 +10°C° 0.2 mm 7 mps 752 mmHg 66%
16:00 +9°C° 0.2 mm 6 mps 752 mmHg 67%
17:00 +9°C° 0 mm 6 mps 753 mmHg 69%
18:00 +8°C° 0 mm 6 mps 753 mmHg 71%
19:00 +8°C° 0 mm 6 mps 754 mmHg 73%
20:00 +8°C° 0 mm 6 mps 754 mmHg 74%
21:00 +7°C° 0 mm 6 mps 755 mmHg 74%
22:00 +7°C° 0 mm 5 mps 755 mmHg 75%
23:00 +7°C° 0 mm 5 mps 755 mmHg 78%

25 Octubre, Domingo

Tiempo Temperatura Precipitaciones Viento Presión Humedad
00:00 +6°C° 0 mm 5 mps 756 mmHg 80%
01:00 +6°C° 0 mm 5 mps 756 mmHg 82%
02:00 +6°C° 0 mm 5 mps 756 mmHg 84%
03:00 +6°C° 0 mm 4 mps 756 mmHg 85%
04:00 +5°C° 0 mm 4 mps 756 mmHg 86%
05:00 +5°C° 0 mm 4 mps 757 mmHg 87%
06:00 +5°C° 0 mm 4 mps 757 mmHg 88%
07:00 +5°C° 0 mm 3 mps 757 mmHg 89%
08:00 +7°C° 0 mm 3 mps 757 mmHg 84%
09:00 +8°C° 0 mm 3 mps 757 mmHg 79%
10:00 +9°C° 0 mm 3 mps 758 mmHg 73%
11:00 +10°C° 0 mm 3 mps 758 mmHg 69%
12:00 +11°C° 0 mm 3 mps 757 mmHg 65%
13:00 +12°C° 0 mm 3 mps 757 mmHg 61%
14:00 +12°C° 0 mm 2 mps 757 mmHg 64%
15:00 +12°C° 0 mm 2 mps 757 mmHg 66%
16:00 +11°C° 0 mm 1 mps 757 mmHg 69%
17:00 +10°C° 0 mm 1 mps 757 mmHg 70%
18:00 +10°C° 0 mm 1 mps 757 mmHg 72%
19:00 +9°C° 0 mm 1 mps 757 mmHg 73%
20:00 +8°C° 0 mm 2 mps 757 mmHg 74%
21:00 +8°C° 0 mm 2 mps 757 mmHg 75%
22:00 +7°C° 0 mm 2 mps 757 mmHg 76%
23:00 +7°C° 0 mm 2 mps 757 mmHg 77%

26 Octubre, Lunes

Tiempo Temperatura Precipitaciones Viento Presión Humedad
00:00 +7°C° 0 mm 3 mps 757 mmHg 78%
01:00 +5°C° 0 mm 3 mps 757 mmHg 79%
02:00 +5°C° 0 mm 3 mps 756 mmHg 80%
03:00 +5°C° 0 mm 3 mps 756 mmHg 81%
04:00 +5°C° 0 mm 3 mps 756 mmHg 81%
05:00 +5°C° 0 mm 3 mps 756 mmHg 82%
06:00 +5°C° 0 mm 3 mps 756 mmHg 82%
07:00 +5°C° 0 mm 3 mps 756 mmHg 82%
08:00 +7°C° 0 mm 3 mps 756 mmHg 75%
09:00 +8°C° 0 mm 4 mps 756 mmHg 69%
10:00 +10°C° 0 mm 4 mps 755 mmHg 63%
11:00 +11°C° 0 mm 4 mps 755 mmHg 60%
12:00 +12°C° 0 mm 4 mps 755 mmHg 57%
13:00 +13°C° 0 mm 4 mps 755 mmHg 54%
14:00 +12°C° 0 mm 4 mps 755 mmHg 57%
15:00 +12°C° 0 mm 3 mps 754 mmHg 61%
16:00 +11°C° 0 mm 3 mps 754 mmHg 65%
17:00 +10°C° 0 mm 3 mps 754 mmHg 68%
18:00 +9°C° 0 mm 3 mps 754 mmHg 71%
19:00 +9°C° 0 mm 3 mps 755 mmHg 74%
20:00 +8°C° 0 mm 3 mps 755 mmHg 76%
21:00 +8°C° 0 mm 3 mps 755 mmHg 78%
22:00 +8°C° 0 mm 3 mps 755 mmHg 80%
23:00 +7°C° 0 mm 3 mps 755 mmHg 82%
Mostrar más

Necesitamos Su Consentimiento

Meteoprog y nuestros Proveedores de Servicios pueden almacenar y acceder a sus datos personales como cookies, identificadores de dispositivo u otras tecnologías similares de su dispositivo y procesar dichos datos para personalizar contenido y anuncios, además de ofrecer funciones de redes sociales y analizar el tráfico.

  • Almacenar y/o acceder a información en su dispositivo

    Se puede almacenar o acceder a cookies, identificadores de dispositivo u otra información de su dispositivo para los fines anteriormente indicados.

  • Anuncios y contenido personalizados, medición de anuncios y contenido, percepciones del público, y desarrollo de productos

    Los anuncios y el contenido pueden personalizarse en base a su perfil. Se pueden añadir más datos para personalizar mejor los anuncios y contenidos. Se puede medir el rendimiento de los anuncios y contenidos. Se puede obtener la percepción sobre el público que ha visto los anuncios y contenidos. Dichos datos pueden usarse para desarrollar o mejorar la experiencia del usuario, sistemas y software.

Al hacer clic en ‘Estoy De Acuerdo’ usted permitirá el uso de las cookies, identificadores de dispositivo, balizas web u otras tecnologías similares indicadas. Su configuración puede cambiarse desde el navegador de su dispositivo.

Para ciertos fines, los intereses legítimos pueden ser considerados por encima del consentimiento. Puede leer más sobre ello en nuestra Política de Privacidad y Cookies.